User: anonymous   Login
Location: Unspecified
(0.0000°N, 0.0000°E)
Time: 10:20:49
(UTC+00:00)
Language:

COSMOS 2416 - Orbit

View from above orbital plane
View from above orbital plane
View from above satellite
View from above satellite

Ground track
Ground track

The orbit data is extracted from the following two-line orbital elements,

1 28909U 05048B   17080.89922231 +.00000060 +00000-0 +30681-3 0  9994
2 28909 082.4682 306.5755 0007383 121.9074 238.2726 12.55162250515343
Epoch (UTC): 21 March 2017 21:34:52
Eccentricity: 0.0007383
inclination: 82.4682°
perigee height: 1437 km
apogee height: 1449 km
right ascension of ascending node: 306.5755°
argument of perigee: 121.9074°
revolutions per day: 12.55162250
mean anomaly at epoch: 238.2726°
orbit number at epoch: 51534

The dashed part of the orbit path shows where the satellite is in the earth's shadow,  

DLR